owner,sensor,date,latitude,longitude,air_pressure(mBar),qcFlag 
TABS,ioos:station:wmo:42047:1,2019-01-01T00:00:00Z,27.8966,-93.5973,1015.38,11111222 
TABS,ioos:station:wmo:42047:1,2019-01-01T00:30:00Z,27.8966,-93.5973,1015.85,11111222 
TABS,ioos:station:wmo:42047:1,2019-01-01T01:00:00Z,27.8966,-93.5973,1015.83,11111222 
TABS,ioos:station:wmo:42047:1,2019-01-01T01:30:00Z,27.8966,-93.5973,1015.97,11111222 
TABS,ioos:station:wmo:42047:1,2019-01-01T02:00:00Z,27.8966,-93.5973,1016.14,11111222 
TABS,ioos:station:wmo:42047:1,2019-01-01T02:30:00Z,27.8966,-93.5973,1016.13,11111222 
TABS,ioos:station:wmo:42047:1,2019-01-01T03:00:00Z,27.8966,-93.5973,1016.6,11111222 
TABS,ioos:station:wmo:42047:1,2019-01-01T03:30:00Z,27.8966,-93.5973,1016.89,11111222 
TABS,ioos:station:wmo:42047:1,2019-01-01T04:00:00Z,27.8966,-93.5973,1016.98,11111222 
TABS,ioos:station:wmo:42047:1,2019-01-01T04:30:00Z,27.8966,-93.5973,1017.5,11111222 
TABS,ioos:station:wmo:42047:1,2019-01-01T05:00:00Z,27.8966,-93.5973,1017.34,11111222 
TABS,ioos:station:wmo:42047:1,2019-01-01T05:30:00Z,27.8966,-93.5973,1016.88,11111222 
TABS,ioos:station:wmo:42047:1,2019-01-01T06:00:00Z,27.8966,-93.5973,1016.77,11111222 
TABS,ioos:station:wmo:42047:1,2019-01-01T06:30:00Z,27.8966,-93.5973,1016.51,11111222 
TABS,ioos:station:wmo:42047:1,2019-01-01T07:00:00Z,27.8966,-93.5973,1016.34,11111222 
TABS,ioos:station:wmo:42047:1,2019-01-01T07:30:00Z,27.8966,-93.5973,1016.21,11111222 
TABS,ioos:station:wmo:42047:1,2019-01-01T08:00:00Z,27.8966,-93.5973,1016.59,11111222 
TABS,ioos:station:wmo:42047:1,2019-01-01T08:30:00Z,27.8966,-93.5973,1016.5,11111222 
TABS,ioos:station:wmo:42047:1,2019-01-01T09:00:00Z,27.8966,-93.5973,1016.37,11111222 
TABS,ioos:station:wmo:42047:1,2019-01-01T09:30:00Z,27.8966,-93.5973,1016.25,11111222 
TABS,ioos:station:wmo:42047:1,2019-01-01T10:00:00Z,27.8966,-93.5973,1016.23,11111222 
TABS,ioos:station:wmo:42047:1,2019-01-01T10:30:00Z,27.8966,-93.5973,1016.18,11111222 
TABS,ioos:station:wmo:42047:1,2019-01-01T11:00:00Z,27.8966,-93.5973,1016.63,11111222 
TABS,ioos:station:wmo:42047:1,2019-01-01T11:30:00Z,27.8966,-93.5973,1016.88,11111222 
TABS,ioos:station:wmo:42047:1,2019-01-01T12:00:00Z,27.8966,-93.5973,1017.34,11111222 
TABS,ioos:station:wmo:42047:1,2019-01-01T12:30:00Z,27.8966,-93.5973,1017.43,11111222 
TABS,ioos:station:wmo:42047:1,2019-01-01T13:00:00Z,27.8966,-93.5973,1017.92,11111222 
TABS,ioos:station:wmo:42047:1,2019-01-01T13:30:00Z,27.8966,-93.5973,1018.06,11111222 
TABS,ioos:station:wmo:42047:1,2019-01-01T14:00:00Z,27.8966,-93.5973,1018.37,11111222 
TABS,ioos:station:wmo:42047:1,2019-01-01T14:30:00Z,27.8966,-93.5973,1019.02,11111222 
TABS,ioos:station:wmo:42047:1,2019-01-01T15:00:00Z,27.8966,-93.5973,1019.57,11111222 
TABS,ioos:station:wmo:42047:1,2019-01-01T15:30:00Z,27.8966,-93.5973,1019.89,11111222 
TABS,ioos:station:wmo:42047:1,2019-01-01T16:00:00Z,27.8966,-93.5973,1019.64,11111222 
TABS,ioos:station:wmo:42047:1,2019-01-01T16:30:00Z,27.8966,-93.5973,1019.81,11111222 
TABS,ioos:station:wmo:42047:1,2019-01-01T17:00:00Z,27.8966,-93.5973,1019.13,11111222 
TABS,ioos:station:wmo:42047:1,2019-01-01T17:30:00Z,27.8966,-93.5973,1018.93,11111222 
TABS,ioos:station:wmo:42047:1,2019-01-01T18:00:00Z,27.8966,-93.5973,1018.46,11111222 
TABS,ioos:station:wmo:42047:1,2019-01-01T18:30:00Z,27.8966,-93.5973,1018.02,11111222 
TABS,ioos:station:wmo:42047:1,2019-01-01T19:00:00Z,27.8966,-93.5973,1017.49,11111222 
TABS,ioos:station:wmo:42047:1,2019-01-01T19:30:00Z,27.8966,-93.5973,1017.15,11111222 
TABS,ioos:station:wmo:42047:1,2019-01-01T20:00:00Z,27.8966,-93.5973,1017.73,11111222 
TABS,ioos:station:wmo:42047:1,2019-01-01T20:30:00Z,27.8966,-93.5973,1017.23,11111222 
TABS,ioos:station:wmo:42047:1,2019-01-01T21:00:00Z,27.8966,-93.5973,1017.26,11111222 
TABS,ioos:station:wmo:42047:1,2019-01-01T21:30:00Z,27.8966,-93.5973,1017.33,11111222 
TABS,ioos:station:wmo:42047:1,2019-01-01T22:00:00Z,27.8966,-93.5973,1017.37,11111222 
TABS,ioos:station:wmo:42047:1,2019-01-01T22:30:00Z,27.8966,-93.5973,1017.45,11111222 
TABS,ioos:station:wmo:42047:1,2019-01-01T23:00:00Z,27.8966,-93.5973,1017.6,11111222 
TABS,ioos:station:wmo:42047:1,2019-01-01T23:30:00Z,27.8966,-93.5973,1018.01,11111222 
TABS,ioos:station:wmo:42047:1,2019-01-02T00:00:00Z,27.8966,-93.5973,1018.38,11111222 
TABS,ioos:station:wmo:42047:1,2019-01-02T00:30:00Z,27.8966,-93.5973,1018.86,11111222 
TABS,ioos:station:wmo:42047:1,2019-01-02T01:00:00Z,27.8966,-93.5973,1019.18,11111222 
TABS,ioos:station:wmo:42047:1,2019-01-02T01:30:00Z,27.8966,-93.5973,1019.28,11111222 
TABS,ioos:station:wmo:42047:1,2019-01-02T02:00:00Z,27.8966,-93.5973,1019.01,11111222 
TABS,ioos:station:wmo:42047:1,2019-01-02T02:30:00Z,27.8966,-93.5973,1019.2,11111222 
TABS,ioos:station:wmo:42047:1,2019-01-02T03:00:00Z,27.8966,-93.5973,1019.03,11111222 
TABS,ioos:station:wmo:42047:1,2019-01-02T03:30:00Z,27.8966,-93.5973,1018.81,11111222 
TABS,ioos:station:wmo:42047:1,2019-01-02T04:00:00Z,27.8966,-93.5973,1019.07,11111222 
TABS,ioos:station:wmo:42047:1,2019-01-02T04:30:00Z,27.8966,-93.5973,1018.58,11111222 
TABS,ioos:station:wmo:42047:1,2019-01-02T05:00:00Z,27.8966,-93.5973,1018.26,11111222 
TABS,ioos:station:wmo:42047:1,2019-01-02T05:30:00Z,27.8966,-93.5973,1017.98,11111222 
TABS,ioos:station:wmo:42047:1,2019-01-02T06:00:00Z,27.8966,-93.5973,1018.19,11111222 
TABS,ioos:station:wmo:42047:1,2019-01-02T06:30:00Z,27.8966,-93.5973,1018.11,11111222 
TABS,ioos:station:wmo:42047:1,2019-01-02T07:00:00Z,27.8966,-93.5973,1018.17,11111222 
TABS,ioos:station:wmo:42047:1,2019-01-02T07:30:00Z,27.8966,-93.5973,1017.64,11111222 
TABS,ioos:station:wmo:42047:1,2019-01-02T08:00:00Z,27.8966,-93.5973,1017.0,11111222 
TABS,ioos:station:wmo:42047:1,2019-01-02T08:30:00Z,27.8966,-93.5973,1016.92,11111222 
TABS,ioos:station:wmo:42047:1,2019-01-02T09:00:00Z,27.8966,-93.5973,1016.91,11111222 
TABS,ioos:station:wmo:42047:1,2019-01-02T09:30:00Z,27.8966,-93.5973,1016.87,11111222 
TABS,ioos:station:wmo:42047:1,2019-01-02T10:00:00Z,27.8966,-93.5973,1016.95,11111222 
TABS,ioos:station:wmo:42047:1,2019-01-02T10:30:00Z,27.8966,-93.5973,1016.8,11111222 
TABS,ioos:station:wmo:42047:1,2019-01-02T11:00:00Z,27.8966,-93.5973,1017.27,11111222 
TABS,ioos:station:wmo:42047:1,2019-01-02T11:30:00Z,27.8966,-93.5973,1016.93,11111222 
TABS,ioos:station:wmo:42047:1,2019-01-02T12:00:00Z,27.8966,-93.5973,1017.23,11111222 
TABS,ioos:station:wmo:42047:1,2019-01-02T12:30:00Z,27.8966,-93.5973,1017.39,11111222 
TABS,ioos:station:wmo:42047:1,2019-01-02T13:00:00Z,27.8966,-93.5973,1017.73,11111222 
TABS,ioos:station:wmo:42047:1,2019-01-02T13:30:00Z,27.8966,-93.5973,1017.45,11111222 
TABS,ioos:station:wmo:42047:1,2019-01-02T14:00:00Z,27.8966,-93.5973,1017.87,11111222 
TABS,ioos:station:wmo:42047:1,2019-01-02T14:30:00Z,27.8966,-93.5973,1018.14,11111222 
TABS,ioos:station:wmo:42047:1,2019-01-02T15:00:00Z,27.8966,-93.5973,1018.76,11111222 
TABS,ioos:station:wmo:42047:1,2019-01-02T15:30:00Z,27.8966,-93.5973,1018.49,11111222 
TABS,ioos:station:wmo:42047:1,2019-01-02T16:00:00Z,27.8966,-93.5973,1018.16,11111222 
TABS,ioos:station:wmo:42047:1,2019-01-02T16:30:00Z,27.8966,-93.5973,1017.62,11111222 
TABS,ioos:station:wmo:42047:1,2019-01-02T17:00:00Z,27.8966,-93.5973,1016.77,11111222 
TABS,ioos:station:wmo:42047:1,2019-01-02T17:30:00Z,27.8966,-93.5973,1016.57,11111222 
TABS,ioos:station:wmo:42047:1,2019-01-02T18:00:00Z,27.8966,-93.5973,1016.5,11111222 
TABS,ioos:station:wmo:42047:1,2019-01-02T18:30:00Z,27.8966,-93.5973,1015.42,11111222 
TABS,ioos:station:wmo:42047:1,2019-01-02T19:00:00Z,27.8966,-93.5973,1014.46,11111222 
TABS,ioos:station:wmo:42047:1,2019-01-02T19:30:00Z,27.8966,-93.5973,1014.42,11111222 
TABS,ioos:station:wmo:42047:1,2019-01-02T20:00:00Z,27.8966,-93.5973,1013.88,11111222 
TABS,ioos:station:wmo:42047:1,2019-01-02T20:30:00Z,27.8966,-93.5973,1013.55,11111222 
TABS,ioos:station:wmo:42047:1,2019-01-02T21:00:00Z,27.8966,-93.5973,1013.16,11111222 
TABS,ioos:station:wmo:42047:1,2019-01-02T21:30:00Z,27.8966,-93.5973,1012.65,11111222 
TABS,ioos:station:wmo:42047:1,2019-01-02T22:00:00Z,27.8966,-93.5973,1013.31,11111222 
TABS,ioos:station:wmo:42047:1,2019-01-02T22:30:00Z,27.8966,-93.5973,1013.17,11111222 
TABS,ioos:station:wmo:42047:1,2019-01-02T23:00:00Z,27.8966,-93.5973,1013.52,11111222 
TABS,ioos:station:wmo:42047:1,2019-01-02T23:30:00Z,27.8966,-93.5973,1013.91,11111222 
TABS,ioos:station:wmo:42047:1,2019-01-03T00:00:00Z,27.8966,-93.5973,1013.93,11111222 
TABS,ioos:station:wmo:42047:1,2019-01-03T00:30:00Z,27.8966,-93.5973,1014.41,11111222 
TABS,ioos:station:wmo:42047:1,2019-01-03T01:00:00Z,27.8966,-93.5973,1014.31,11111222 
TABS,ioos:station:wmo:42047:1,2019-01-03T01:30:00Z,27.8966,-93.5973,1014.19,11111222 
TABS,ioos:station:wmo:42047:1,2019-01-03T02:00:00Z,27.8966,-93.5973,1015.08,11111222 
TABS,ioos:station:wmo:42047:1,2019-01-03T02:30:00Z,27.8966,-93.5973,1014.89,11111222 
TABS,ioos:station:wmo:42047:1,2019-01-03T03:00:00Z,27.8966,-93.5973,1015.03,11111222 
TABS,ioos:station:wmo:42047:1,2019-01-03T03:30:00Z,27.8966,-93.5973,1014.88,11111222 
TABS,ioos:station:wmo:42047:1,2019-01-03T04:00:00Z,27.8966,-93.5973,1014.5,11111222 
TABS,ioos:station:wmo:42047:1,2019-01-03T04:30:00Z,27.8966,-93.5973,1014.17,11111222 
TABS,ioos:station:wmo:42047:1,2019-01-03T05:00:00Z,27.8966,-93.5973,1014.18,11111222 
TABS,ioos:station:wmo:42047:1,2019-01-03T05:30:00Z,27.8966,-93.5973,1014.11,11111222 
TABS,ioos:station:wmo:42047:1,2019-01-03T06:00:00Z,27.8966,-93.5973,1013.87,11111222 
TABS,ioos:station:wmo:42047:1,2019-01-03T06:30:00Z,27.8966,-93.5973,1013.83,11111222 
TABS,ioos:station:wmo:42047:1,2019-01-03T07:00:00Z,27.8966,-93.5973,1013.39,11111222 
TABS,ioos:station:wmo:42047:1,2019-01-03T07:30:00Z,27.8966,-93.5973,1013.47,11111222 
TABS,ioos:station:wmo:42047:1,2019-01-03T08:00:00Z,27.8966,-93.5973,1013.12,11111222 
TABS,ioos:station:wmo:42047:1,2019-01-03T08:30:00Z,27.8966,-93.5973,1013.19,11111222 
TABS,ioos:station:wmo:42047:1,2019-01-03T09:00:00Z,27.8966,-93.5973,1012.85,11111222 
TABS,ioos:station:wmo:42047:1,2019-01-03T09:30:00Z,27.8966,-93.5973,1012.77,11111222 
TABS,ioos:station:wmo:42047:1,2019-01-03T10:00:00Z,27.8966,-93.5973,1012.57,11111222 
TABS,ioos:station:wmo:42047:1,2019-01-03T10:30:00Z,27.8966,-93.5973,1012.18,11111222 
TABS,ioos:station:wmo:42047:1,2019-01-03T11:00:00Z,27.8966,-93.5973,1012.68,11111222 
TABS,ioos:station:wmo:42047:1,2019-01-03T11:30:00Z,27.8966,-93.5973,1012.08,11111222 
TABS,ioos:station:wmo:42047:1,2019-01-03T12:00:00Z,27.8966,-93.5973,1012.44,11111222 
TABS,ioos:station:wmo:42047:1,2019-01-03T12:30:00Z,27.8966,-93.5973,1012.25,11111222 
TABS,ioos:station:wmo:42047:1,2019-01-03T13:00:00Z,27.8966,-93.5973,1012.28,11111222 
TABS,ioos:station:wmo:42047:1,2019-01-03T13:30:00Z,27.8966,-93.5973,1012.85,11111222 
TABS,ioos:station:wmo:42047:1,2019-01-03T14:00:00Z,27.8966,-93.5973,1013.39,11111222 
TABS,ioos:station:wmo:42047:1,2019-01-03T14:30:00Z,27.8966,-93.5973,1013.95,11111222 
TABS,ioos:station:wmo:42047:1,2019-01-03T15:00:00Z,27.8966,-93.5973,1013.93,11111222 
TABS,ioos:station:wmo:42047:1,2019-01-03T15:30:00Z,27.8966,-93.5973,1013.98,11111222 
TABS,ioos:station:wmo:42047:1,2019-01-03T16:00:00Z,27.8966,-93.5973,1014.03,11111222 
TABS,ioos:station:wmo:42047:1,2019-01-03T16:30:00Z,27.8966,-93.5973,1013.52,11111222 
TABS,ioos:station:wmo:42047:1,2019-01-03T17:00:00Z,27.8966,-93.5973,1012.59,11111222 
TABS,ioos:station:wmo:42047:1,2019-01-03T17:30:00Z,27.8966,-93.5973,1012.63,11111222 
TABS,ioos:station:wmo:42047:1,2019-01-03T18:00:00Z,27.8966,-93.5973,1012.21,11111222 
TABS,ioos:station:wmo:42047:1,2019-01-03T18:30:00Z,27.8966,-93.5973,1012.28,11111222 
TABS,ioos:station:wmo:42047:1,2019-01-03T19:00:00Z,27.8966,-93.5973,1012.43,11111222 
TABS,ioos:station:wmo:42047:1,2019-01-03T19:30:00Z,27.8966,-93.5973,1012.36,11111222 
TABS,ioos:station:wmo:42047:1,2019-01-03T20:00:00Z,27.8966,-93.5973,1012.59,11111222 
TABS,ioos:station:wmo:42047:1,2019-01-03T20:30:00Z,27.8966,-93.5973,1012.48,11111222 
TABS,ioos:station:wmo:42047:1,2019-01-03T21:00:00Z,27.8966,-93.5973,1012.56,11111222 
TABS,ioos:station:wmo:42047:1,2019-01-03T21:30:00Z,27.8966,-93.5973,1012.23,11111222 
TABS,ioos:station:wmo:42047:1,2019-01-03T22:00:00Z,27.8966,-93.5973,1012.3,11111222 
TABS,ioos:station:wmo:42047:1,2019-01-03T22:30:00Z,27.8966,-93.5973,1012.82,11111222 
TABS,ioos:station:wmo:42047:1,2019-01-03T23:00:00Z,27.8966,-93.5973,1012.29,11111222 
TABS,ioos:station:wmo:42047:1,2019-01-03T23:30:00Z,27.8966,-93.5973,1012.96,11111222 
TABS,ioos:station:wmo:42047:1,2019-01-04T00:00:00Z,27.8966,-93.5973,1013.53,11111222 
TABS,ioos:station:wmo:42047:1,2019-01-04T00:30:00Z,27.8966,-93.5973,1013.85,11111222 
TABS,ioos:station:wmo:42047:1,2019-01-04T01:00:00Z,27.8966,-93.5973,1014.68,11111222 
TABS,ioos:station:wmo:42047:1,2019-01-04T01:30:00Z,27.8966,-93.5973,1014.95,11111222 
TABS,ioos:station:wmo:42047:1,2019-01-04T02:00:00Z,27.8966,-93.5973,1015.07,11111222 
TABS,ioos:station:wmo:42047:1,2019-01-04T02:30:00Z,27.8966,-93.5973,1015.42,11111222 
TABS,ioos:station:wmo:42047:1,2019-01-04T03:00:00Z,27.8966,-93.5973,1015.75,11111222 
TABS,ioos:station:wmo:42047:1,2019-01-04T03:30:00Z,27.8966,-93.5973,1015.9,11111222 
TABS,ioos:station:wmo:42047:1,2019-01-04T04:00:00Z,27.8966,-93.5973,1015.65,11111222 
TABS,ioos:station:wmo:42047:1,2019-01-04T04:30:00Z,27.8966,-93.5973,1015.65,11111222 
TABS,ioos:station:wmo:42047:1,2019-01-04T05:00:00Z,27.8966,-93.5973,1015.89,11111222 
TABS,ioos:station:wmo:42047:1,2019-01-04T05:30:00Z,27.8966,-93.5973,1016.01,11111222 
TABS,ioos:station:wmo:42047:1,2019-01-04T06:00:00Z,27.8966,-93.5973,1016.08,11111222 
TABS,ioos:station:wmo:42047:1,2019-01-04T06:30:00Z,27.8966,-93.5973,1015.59,11111222 
TABS,ioos:station:wmo:42047:1,2019-01-04T07:00:00Z,27.8966,-93.5973,1016.11,11111222 
TABS,ioos:station:wmo:42047:1,2019-01-04T07:30:00Z,27.8966,-93.5973,1016.42,11111222 
TABS,ioos:station:wmo:42047:1,2019-01-04T08:00:00Z,27.8966,-93.5973,1016.4,11111222 
TABS,ioos:station:wmo:42047:1,2019-01-04T08:30:00Z,27.8966,-93.5973,1016.27,11111222 
TABS,ioos:station:wmo:42047:1,2019-01-04T09:00:00Z,27.8966,-93.5973,1016.64,11111222 
TABS,ioos:station:wmo:42047:1,2019-01-04T09:30:00Z,27.8966,-93.5973,1016.72,11111222 
TABS,ioos:station:wmo:42047:1,2019-01-04T10:00:00Z,27.8966,-93.5973,1016.58,11111222 
TABS,ioos:station:wmo:42047:1,2019-01-04T10:30:00Z,27.8966,-93.5973,1016.33,11111222 
TABS,ioos:station:wmo:42047:1,2019-01-04T11:00:00Z,27.8966,-93.5973,1016.38,11111222 
TABS,ioos:station:wmo:42047:1,2019-01-04T11:30:00Z,27.8966,-93.5973,1016.18,11111222 
TABS,ioos:station:wmo:42047:1,2019-01-04T12:00:00Z,27.8966,-93.5973,1016.71,11111222 
TABS,ioos:station:wmo:42047:1,2019-01-04T12:30:00Z,27.8966,-93.5973,1016.8,11111222 
TABS,ioos:station:wmo:42047:1,2019-01-04T13:00:00Z,27.8966,-93.5973,1017.0,11111222 
TABS,ioos:station:wmo:42047:1,2019-01-04T13:30:00Z,27.8966,-93.5973,1017.24,11111222 
TABS,ioos:station:wmo:42047:1,2019-01-04T14:00:00Z,27.8966,-93.5973,1017.63,11111222 
TABS,ioos:station:wmo:42047:1,2019-01-04T14:30:00Z,27.8966,-93.5973,1017.63,11111222 
TABS,ioos:station:wmo:42047:1,2019-01-04T15:00:00Z,27.8966,-93.5973,1017.98,11111222 
TABS,ioos:station:wmo:42047:1,2019-01-04T15:30:00Z,27.8966,-93.5973,1018.13,11111222 
TABS,ioos:station:wmo:42047:1,2019-01-04T16:00:00Z,27.8966,-93.5973,1018.15,11111222 
TABS,ioos:station:wmo:42047:1,2019-01-04T16:30:00Z,27.8966,-93.5973,1018.04,11111222 
TABS,ioos:station:wmo:42047:1,2019-01-04T17:00:00Z,27.8966,-93.5973,1017.66,11111222 
TABS,ioos:station:wmo:42047:1,2019-01-04T17:30:00Z,27.8966,-93.5973,1017.21,11111222 
TABS,ioos:station:wmo:42047:1,2019-01-04T18:00:00Z,27.8966,-93.5973,1017.02,11111222 
TABS,ioos:station:wmo:42047:1,2019-01-04T18:30:00Z,27.8966,-93.5973,1016.57,11111222 
TABS,ioos:station:wmo:42047:1,2019-01-04T19:00:00Z,27.8966,-93.5973,1016.64,11111222 
TABS,ioos:station:wmo:42047:1,2019-01-04T19:30:00Z,27.8966,-93.5973,1016.47,11111222 
TABS,ioos:station:wmo:42047:1,2019-01-04T20:00:00Z,27.8966,-93.5973,1016.3,11111222 
TABS,ioos:station:wmo:42047:1,2019-01-04T20:30:00Z,27.8966,-93.5973,1016.45,11111222 
TABS,ioos:station:wmo:42047:1,2019-01-04T21:00:00Z,27.8966,-93.5973,1016.88,11111222 
TABS,ioos:station:wmo:42047:1,2019-01-04T21:30:00Z,27.8966,-93.5973,1017.14,11111222 
TABS,ioos:station:wmo:42047:1,2019-01-04T22:00:00Z,27.8966,-93.5973,1017.46,11111222 
TABS,ioos:station:wmo:42047:1,2019-01-04T22:30:00Z,27.8966,-93.5973,1017.73,11111222 
TABS,ioos:station:wmo:42047:1,2019-01-04T23:00:00Z,27.8966,-93.5973,1017.97,11111222 
TABS,ioos:station:wmo:42047:1,2019-01-04T23:30:00Z,27.8966,-93.5973,1018.16,11111222 
TABS,ioos:station:wmo:42047:1,2019-01-05T00:00:00Z,27.8966,-93.5973,1018.37,11111222 
TABS,ioos:station:wmo:42047:1,2019-01-05T00:30:00Z,27.8966,-93.5973,1018.26,11111222 
TABS,ioos:station:wmo:42047:1,2019-01-05T01:00:00Z,27.8966,-93.5973,1018.51,11111222 
TABS,ioos:station:wmo:42047:1,2019-01-05T01:30:00Z,27.8966,-93.5973,1018.74,11111222 
TABS,ioos:station:wmo:42047:1,2019-01-05T02:00:00Z,27.8966,-93.5973,1018.95,11111222 
TABS,ioos:station:wmo:42047:1,2019-01-05T02:30:00Z,27.8966,-93.5973,1019.04,11111222 
TABS,ioos:station:wmo:42047:1,2019-01-05T03:00:00Z,27.8966,-93.5973,1019.21,11111222 
TABS,ioos:station:wmo:42047:1,2019-01-05T03:30:00Z,27.8966,-93.5973,1019.56,11111222 
TABS,ioos:station:wmo:42047:1,2019-01-05T04:00:00Z,27.8966,-93.5973,1019.67,11111222 
TABS,ioos:station:wmo:42047:1,2019-01-05T04:30:00Z,27.8966,-93.5973,1019.55,11111222 
TABS,ioos:station:wmo:42047:1,2019-01-05T05:00:00Z,27.8966,-93.5973,1019.63,11111222 
TABS,ioos:station:wmo:42047:1,2019-01-05T05:30:00Z,27.8966,-93.5973,1019.74,11111222 
TABS,ioos:station:wmo:42047:1,2019-01-05T06:00:00Z,27.8966,-93.5973,1019.97,11111222 
TABS,ioos:station:wmo:42047:1,2019-01-05T06:30:00Z,27.8966,-93.5973,1020.11,11111222 
TABS,ioos:station:wmo:42047:1,2019-01-05T07:00:00Z,27.8966,-93.5973,1020.15,11111222 
TABS,ioos:station:wmo:42047:1,2019-01-05T07:30:00Z,27.8966,-93.5973,1020.14,11111222 
TABS,ioos:station:wmo:42047:1,2019-01-05T08:00:00Z,27.8966,-93.5973,1020.22,11111222 
TABS,ioos:station:wmo:42047:1,2019-01-05T08:30:00Z,27.8966,-93.5973,1020.18,11111222 
TABS,ioos:station:wmo:42047:1,2019-01-05T09:00:00Z,27.8966,-93.5973,1020.42,11111222 
TABS,ioos:station:wmo:42047:1,2019-01-05T09:30:00Z,27.8966,-93.5973,1020.42,11111222 
TABS,ioos:station:wmo:42047:1,2019-01-05T10:00:00Z,27.8966,-93.5973,1020.23,11111222 
TABS,ioos:station:wmo:42047:1,2019-01-05T10:30:00Z,27.8966,-93.5973,1020.34,11111222 
TABS,ioos:station:wmo:42047:1,2019-01-05T11:00:00Z,27.8966,-93.5973,1020.45,11111222 
TABS,ioos:station:wmo:42047:1,2019-01-05T11:30:00Z,27.8966,-93.5973,1020.46,11111222 
TABS,ioos:station:wmo:42047:1,2019-01-05T12:00:00Z,27.8966,-93.5973,1020.86,11111222 
TABS,ioos:station:wmo:42047:1,2019-01-05T12:30:00Z,27.8966,-93.5973,1021.03,11111222 
TABS,ioos:station:wmo:42047:1,2019-01-05T13:00:00Z,27.8966,-93.5973,1021.46,11111222 
TABS,ioos:station:wmo:42047:1,2019-01-05T13:30:00Z,27.8966,-93.5973,1021.95,11111222 
TABS,ioos:station:wmo:42047:1,2019-01-05T14:00:00Z,27.8966,-93.5973,1022.45,11111222 
TABS,ioos:station:wmo:42047:1,2019-01-05T14:30:00Z,27.8966,-93.5973,1022.92,11111222 
TABS,ioos:station:wmo:42047:1,2019-01-05T15:00:00Z,27.8966,-93.5973,1023.39,11111222 
TABS,ioos:station:wmo:42047:1,2019-01-05T15:30:00Z,27.8966,-93.5973,1023.99,11111222 
TABS,ioos:station:wmo:42047:1,2019-01-05T16:00:00Z,27.8966,-93.5973,1023.99,11111222 
TABS,ioos:station:wmo:42047:1,2019-01-05T16:30:00Z,27.8966,-93.5973,1023.87,11111222 
TABS,ioos:station:wmo:42047:1,2019-01-05T17:00:00Z,27.8966,-93.5973,1023.6,11111222 
TABS,ioos:station:wmo:42047:1,2019-01-05T17:30:00Z,27.8966,-93.5973,1023.3,11111222 
TABS,ioos:station:wmo:42047:1,2019-01-05T18:00:00Z,27.8966,-93.5973,1023.04,11111222 
TABS,ioos:station:wmo:42047:1,2019-01-05T18:30:00Z,27.8966,-93.5973,1022.74,11111222 
TABS,ioos:station:wmo:42047:1,2019-01-05T19:00:00Z,27.8966,-93.5973,1022.53,11111222 
TABS,ioos:station:wmo:42047:1,2019-01-05T19:30:00Z,27.8966,-93.5973,1022.26,11111222 
TABS,ioos:station:wmo:42047:1,2019-01-05T20:00:00Z,27.8966,-93.5973,1022.17,11111222 
TABS,ioos:station:wmo:42047:1,2019-01-05T20:30:00Z,27.8966,-93.5973,1021.96,11111222 
TABS,ioos:station:wmo:42047:1,2019-01-05T21:00:00Z,27.8966,-93.5973,1021.94,11111222 
TABS,ioos:station:wmo:42047:1,2019-01-05T21:30:00Z,27.8966,-93.5973,1021.83,11111222 
TABS,ioos:station:wmo:42047:1,2019-01-05T22:00:00Z,27.8966,-93.5973,1022.0,11111222 
TABS,ioos:station:wmo:42047:1,2019-01-05T22:30:00Z,27.8966,-93.5973,1021.83,11111222 
TABS,ioos:station:wmo:42047:1,2019-01-05T23:00:00Z,27.8966,-93.5973,1021.87,11111222 
TABS,ioos:station:wmo:42047:1,2019-01-05T23:30:00Z,27.8966,-93.5973,1021.85,11111222 
TABS,ioos:station:wmo:42047:1,2019-01-06T00:00:00Z,27.8966,-93.5973,1021.91,11111222 
TABS,ioos:station:wmo:42047:1,2019-01-06T00:30:00Z,27.8966,-93.5973,1022.24,11111222 
TABS,ioos:station:wmo:42047:1,2019-01-06T01:00:00Z,27.8966,-93.5973,1022.3,11111222 
TABS,ioos:station:wmo:42047:1,2019-01-06T01:30:00Z,27.8966,-93.5973,1022.37,11111222 
TABS,ioos:station:wmo:42047:1,2019-01-06T02:00:00Z,27.8966,-93.5973,1022.59,11111222 
TABS,ioos:station:wmo:42047:1,2019-01-06T02:30:00Z,27.8966,-93.5973,1022.37,11111222 
TABS,ioos:station:wmo:42047:1,2019-01-06T03:00:00Z,27.8966,-93.5973,1022.53,11111222 
TABS,ioos:station:wmo:42047:1,2019-01-06T03:30:00Z,27.8966,-93.5973,1022.77,11111222 
TABS,ioos:station:wmo:42047:1,2019-01-06T04:00:00Z,27.8966,-93.5973,1023.06,11111222 
TABS,ioos:station:wmo:42047:1,2019-01-06T04:30:00Z,27.8966,-93.5973,1022.77,11111222 
TABS,ioos:station:wmo:42047:1,2019-01-06T05:00:00Z,27.8966,-93.5973,1023.01,11111222 
TABS,ioos:station:wmo:42047:1,2019-01-06T05:30:00Z,27.8966,-93.5973,1022.81,11111222 
TABS,ioos:station:wmo:42047:1,2019-01-06T06:00:00Z,27.8966,-93.5973,1022.86,11111222 
TABS,ioos:station:wmo:42047:1,2019-01-06T06:30:00Z,27.8966,-93.5973,1022.88,11111222 
TABS,ioos:station:wmo:42047:1,2019-01-06T07:00:00Z,27.8966,-93.5973,1022.78,11111222 
TABS,ioos:station:wmo:42047:1,2019-01-06T07:30:00Z,27.8966,-93.5973,1022.64,11111222 
TABS,ioos:station:wmo:42047:1,2019-01-06T08:00:00Z,27.8966,-93.5973,1022.66,11111222 
TABS,ioos:station:wmo:42047:1,2019-01-06T08:30:00Z,27.8966,-93.5973,1022.5,11111222 
TABS,ioos:station:wmo:42047:1,2019-01-06T09:00:00Z,27.8966,-93.5973,1022.44,11111222 
TABS,ioos:station:wmo:42047:1,2019-01-06T09:30:00Z,27.8966,-93.5973,1022.28,11111222 
TABS,ioos:station:wmo:42047:1,2019-01-06T10:00:00Z,27.8966,-93.5973,1022.11,11111222 
TABS,ioos:station:wmo:42047:1,2019-01-06T10:30:00Z,27.8966,-93.5973,1022.12,11111222 
TABS,ioos:station:wmo:42047:1,2019-01-06T11:00:00Z,27.8966,-93.5973,1021.98,11111222 
TABS,ioos:station:wmo:42047:1,2019-01-06T11:30:00Z,27.8966,-93.5973,1021.81,11111222 
TABS,ioos:station:wmo:42047:1,2019-01-06T12:00:00Z,27.8966,-93.5973,1021.84,11111222 
TABS,ioos:station:wmo:42047:1,2019-01-06T12:30:00Z,27.8966,-93.5973,1021.83,11111222 
TABS,ioos:station:wmo:42047:1,2019-01-06T13:00:00Z,27.8966,-93.5973,1021.9,11111222 
TABS,ioos:station:wmo:42047:1,2019-01-06T13:30:00Z,27.8966,-93.5973,1022.21,11111222 
TABS,ioos:station:wmo:42047:1,2019-01-06T14:00:00Z,27.8966,-93.5973,1022.23,11111222 
TABS,ioos:station:wmo:42047:1,2019-01-06T14:30:00Z,27.8966,-93.5973,1022.47,11111222 
TABS,ioos:station:wmo:42047:1,2019-01-06T15:00:00Z,27.8966,-93.5973,1022.8,11111222 
TABS,ioos:station:wmo:42047:1,2019-01-06T15:30:00Z,27.8966,-93.5973,1023.4,11111222 
TABS,ioos:station:wmo:42047:1,2019-01-06T16:00:00Z,27.8966,-93.5973,1023.54,11111222 
TABS,ioos:station:wmo:42047:1,2019-01-06T16:30:00Z,27.8966,-93.5973,1023.35,11111222 
TABS,ioos:station:wmo:42047:1,2019-01-06T17:00:00Z,27.8966,-93.5973,1023.04,11111222 
TABS,ioos:station:wmo:42047:1,2019-01-06T17:30:00Z,27.8966,-93.5973,1022.33,11111222 
TABS,ioos:station:wmo:42047:1,2019-01-06T18:00:00Z,27.8966,-93.5973,1021.89,11111222 
TABS,ioos:station:wmo:42047:1,2019-01-06T18:30:00Z,27.8966,-93.5973,1021.47,11111222 